Location: Kielce
(50.8833°N, 20.6167°E)
Time: 10:05:31
(UTC+01:00)

X-37B - Visible Passes

Search period start: 06 March 2021 00:00
Search period end: 16 March 2021 00:00
Orbit: 383 x 391 km, 45.0° (Epoch: 27 February)

Date Brightness Start Highest point End Pass type
(mag) Time Alt. Az. Time Alt. Az. Time Alt. Az.
12 Mar 3.0 19:22:13 10° SSW 19:23:05 13° S 19:23:05 13° S visible
13 Mar 3.0 18:25:05 10° S 18:26:09 11° SSE 18:27:14 10° SE visible
13 Mar 3.3 19:59:24 10° SW 19:59:58 13° SW 19:59:58 13° SW visible
14 Mar 2.2 19:01:26 10° SW 19:03:54 21° SSE 19:04:28 20° SSE visible
15 Mar 2.2 19:39:01 10° WSW 19:41:10 25° SSW 19:41:10 25° SSW visible
